Regional Weather Roundup
Issued by NWS

Home | Current Version | Previous Version | Graphics & Text | Print | Product List | Glossary On
Versions: 1 2 3 4 5 6 7 8 9 10 11 12 13 14 15 16 17 18 19 20 21 22 23 24 25 26 27 28 29 30 31 32 33 34 35 36 37 38 39 40 41 42 43 44 45 46 47 48 49 50
000
ASUS43 KLMK 221102
RWRKY
KENTUCKY REGIONAL WEATHER ROUNDUP
NATIONAL WEATHER SERVICE LOUISVILLE KY
600 AM EST SAT NOV 22 2014

NOTE "FAIR" INDICATES FEW OR NO CLOUDS BELOW 12,000 FEET
WITH NO SIGNIFICANT WEATHER AND/OR OBSTRUCTIONS TO VISIBILITY.

KYZ001>023-026-027-061>063-070>075-221200-
WESTERN AND SOUTH CENTRAL KENTUCKY

CITY           SKY/WX    TMP DP  RH WIND       PRES   REMARKS
PADUCAH        MOCLDY    52  41  66 S9        30.24S
HENDERSON      CLOUDY    48  36  61 S8        30.24F
OWENSBORO      MOCLDY    45  36  70 MISG      30.27S
HOPKINSVILLE   DRIZZLE   49  36  61 S8        30.30S
BOWLING GREEN  CLOUDY    50  33  52 S9        30.32F
GLASGOW        NOT AVBL
$$

KYZ024-025-028>034-038-045-046-053-221200-
NORTH CENTRAL KENTUCKY

CITY           SKY/WX    TMP DP  RH WIND       PRES   REMARKS
LOUISVILLE/SDF LGT RAIN  39  29  67 SE8       30.29F WCI  33
LOUISVILLE/LOU LGT RAIN  41  26  55 SE6       30.30F
FORT KNOX      MOCLDY    43  32  65 SE8       30.28F
$$

KYZ035>037-039>044-047>052-055>060-089>105-221200-
NORTHEAST KENTUCKY

CITY           SKY/WX    TMP DP  RH WIND       PRES   REMARKS
LEXINGTON      CLOUDY    41  21  44 S8        30.33S
COVINGTON      LGT RAIN  35  24  64 S7        30.29F WCI  29
FRANKFORT      CLOUDY    37  26  64 S3        30.31S
$$

KYZ054-064>069-076>088-106>120-221200-
SOUTHEAST KENTUCKY

CITY           SKY/WX    TMP DP  RH WIND       PRES   REMARKS
JACKSON        PTCLDY    34  11  38 S5        30.36S WCI  30
LONDON         MOCLDY    31  18  58 CALM      30.37F
SOMERSET       CLOUDY    32  21  64 SE6       30.38F WCI  26
MIDDLESBORO    PTCLDY    24  22  91 CALM      30.43S
MONTICELLO     CLOUDY    47  26  44 S9        30.39S
$$




USA.gov is the U.S. government's official web portal to all federal, state and local government web resources and services.